Temperature
12 12 12 12 12 13 13 13 13 13 13 13 13 13 13 13 13 13 13 13 13 13 13 14 14 14 14 14 14 14 14 14 14 14 14 14 14 15 15 15 15 15 15
12 12 12 12 12 12 12 12 12 12 13 13 13 12 12 12 13 13 13 13 13 13 13 13 14 14 14 14 14 14 14 14 14 14 14 14 14 14 14 15 15 15 15
12 12 12 12 12 12 12 12 12 12 12 12 12 12 12 12 12 12 12 12 13 13 13 13 13 14 14 14 14 14 14 14 14 14 14 14 14 14 14 14 14 14 14
12 12 12 12 12 12 12 12 12 12 12 12 12 12 12 12 12 12 12 12 12 12 13 13 13 13 13 13 13 13 13 13 13 13 13 13 14 14 14 14 14 14 14
11 12 12 12 11 12 12 11 11 11 11 11 11 12 12 12 11 12 12 12 12 12 12 13 13 13 13 13 13 13 13 13 13 13 13 13 13 13 14 14 14 14 14
11 11 12 11 11 11 11 11 11 11 11 11 11 11 11 11 11 11 11 12 12 12 12 12 13 13 13 13 13 13 12 13 13 13 13 13 13 13 13 13 13 13 13
11 11 11 11 11 11 11 11 11 11 11 11 11 11 11 11 11 11 11 11 11 11 12 12 12 12 12 12 12 12 12 12 12 12 12 12 12 13 13 13 13 13 13
11 10 11 10 10 11 10 10 10 10 10 10 10 10 10 10 11 11 11 11 11 11 11 11 12 12 12 12 12 12 12 12 12 12 12 12 12 12 12 12 12 12 12
10 10 10 10 10 10 10 10 10 10 10 10 10 10 10 10 10 10 10 11 11 11 11 11 11 11 11 11 11 11 11 11 11 11 11 11 11 12 12 12 12 12 12
10 10 10 10 10 10 10 10 10 10 9 9 9 9 10 10 10 10 10 10 10 10 11 11 11 11 11 11 11 11 11 11 11 11 11 11 11 11 11 11 11 11 11
9 9 9 9 9 9 9 9 9 9 9 9 9 9 9 9 9 9 9 10 10 10 10 10 10 10 10 10 10 10 10 10 10 10 10 10 11 11 11 11 11 11 11
9 9 9 9 9 9 9 9 9 9 9 9 9 9 9 9 9 9 9 9 9 9 9 9 10 10 10 10 10 10 10 10 10 10 10 10 10 11 10 10 11 11 11
9 9 9 9 9 9 9 9 9 8 8 8 8 8 8 8 8 8 8 8 8 8 9 9 9 9 9 9 9 9 9 9 9 9 9 10 10 10 10 10 10 10 10
9 9 9 9 8 8 8 8 8 8 8 8 8 8 8 8 8 8 8 8 8 8 8 8 8 8 8 8 9 9 9 9 9 9 9 9 9 9 10 10 10 10 10
8 8 8 8 8 8 8 8 8 8 7 7 7 7 7 7 7 7 7 7 7 7 8 8 8 8 8 8 8 8 8 8 8 8 8 9 9 9 9 9 9 9 9
8 8 8 8 8 8 8 7 7 7 7 7 7 7 7 7 7 7 7 7 7 7 7 7 7 7 7 7 7 8 8 8 8 8 8 8 8 8 8 8 9 9 8
8 8 8 8 7 7 7 7 7 7 7 7 7 7 6 6 6 6 6 6 6 7 7 7 7 7 7 7 7 7 7 7 7 7 7 7 7 7 8 8 8 8 8
7 7 7 7 7 7 7 7 7 6 6 6 6 6 6 6 6 6 6 6 6 6 6 6 6 6 6 6 6 6 6 6 6 7 7 7 7 7 7 7 7 7 7
7 7 7 7 7 7 7 6 6 6 6 6 6 6 6 6 6 5 6 5 5 5 5 5 5 5 5 5 6 6 6 6 6 6 6 6 6 6 6 6 6 7 7
7 7 7 7 7 6 6 6 6 6 6 5 5 5 5 5 5 5 5 5 5 5 5 5 5 5 5 5 5 5 5 5 5 5 5 5 5 5 6 6 6 6 6
6 6 6 6 6 6 6 6 6 5 5 5 5 5 5 5 5 5 5 4 4 4 4 4 4 4 4 4 4 4 4 4 4 4 4 5 5 5 5 5 5 5 5
6 6 6 6 6 6 6 6 5 5 5 5 5 4 4 4 4 4 4 4 4 4 4 4 3 3 3 3 3 3 3 3 3 3 4 4 4 4 4 4 4 4 4
5 6 6 6 6 6 5 5 5 5 4 4 4 4 4 4 4 4 3 3 3 3 3 3 3 3 3 2 2 2 2 2 2 2 2 3 3 3 3 3 3 4 4
5 5 5 5 5 5 5 5 5 4 4 4 4 4 3 3 3 3 3 3 2 3 2 2 2 2 2 2 2 1 1 1 1 1 1 2 2 2 2 2 2 3 3
5 5 5 5 4 4 4 4 4 4 4 3 3 3 3 3 3 2 2 2 2 2 2 2 2 1 1 1 1 1 1 0 0 0 0 1 1 1 1 1 1 2 2
5 4 4 4 4 4 4 3 3 3 3 3 3 2 2 2 2 2 2 1 1 1 1 1 1 1 1 1 0 0 0 -0 -1 -1 -1 -1 -1 0 0 0 0 1 1
Wind_Speed
7 8 9 9 10 11 11 12 12 13 13 13 14 14 15 15 15 15 15 15 16 16 17 16 16 16 16 16 16 15 15 16 16 15 16 16 15 15 16 15 15 14 16
9 10 10 10 11 11 11 12 13 13 13 13 13 14 14 15 15 15 15 15 15 16 17 17 16 16 16 16 16 15 14 14 14 14 14 15 15 15 16 16 15 13 15
10 11 10 11 11 12 12 12 12 13 13 13 13 14 14 15 15 15 15 15 15 16 16 17 17 16 15 15 15 15 14 14 13 13 13 12 13 14 14 15 15 15 15
11 11 11 12 12 12 12 12 12 12 12 13 13 14 14 15 15 15 15 15 16 16 17 17 17 17 15 14 14 14 14 14 14 13 11 12 12 13 14 14 14 14 14
10 11 12 12 12 12 12 12 12 12 12 13 13 14 14 14 15 15 15 15 16 16 16 16 16 16 16 14 14 14 15 15 15 14 12 13 12 13 14 14 14 14 14
10 12 12 12 12 12 12 11 12 12 12 13 13 14 14 14 14 14 15 15 15 15 16 16 16 16 16 16 15 14 15 15 15 14 13 13 12 14 14 14 14 14 14
9 11 12 12 13 12 12 12 12 12 12 13 13 14 14 14 14 15 15 15 15 15 16 16 16 16 16 15 15 15 15 15 14 13 13 13 13 14 14 13 13 14 14
9 10 11 12 13 12 12 12 12 12 12 13 13 13 13 13 14 14 15 15 15 15 15 15 15 15 15 15 15 15 15 14 13 13 14 14 14 15 14 14 13 13 13
9 9 9 10 11 12 12 12 12 12 12 13 13 13 13 13 13 14 14 14 14 14 14 14 14 14 14 14 14 14 15 15 13 12 12 13 14 14 14 14 13 13 13
8 8 8 9 10 10 11 12 12 12 12 12 12 12 13 13 13 13 13 13 14 14 13 13 13 13 13 13 13 13 13 13 12 12 12 13 14 14 13 13 13 12 12
7 7 7 7 8 9 10 11 11 11 11 11 11 10 10 11 11 12 12 12 13 13 13 12 12 12 11 11 11 12 11 11 11 11 11 13 13 12 12 12 12 12 11
7 6 6 7 7 7 8 9 8 8 9 9 9 8 8 9 9 10 11 12 12 12 12 11 11 10 9 8 9 10 10 11 10 9 10 12 12 12 11 11 11 11 11
8 7 6 6 6 6 6 6 6 7 7 8 8 8 8 8 8 8 8 9 9 10 9 9 9 9 10 10 9 9 10 10 9 9 10 11 12 11 11 10 10 9 10
8 8 6 6 6 6 6 5 6 6 6 6 6 7 7 6 6 7 7 7 8 8 8 8 8 9 10 10 9 9 9 8 8 9 10 11 11 10 10 9 9 8 8
9 8 7 6 6 6 6 5 5 5 5 6 6 7 7 6 5 5 6 7 7 7 7 7 7 8 8 8 9 8 8 8 8 8 8 10 10 9 9 9 9 8 8
9 9 8 7 6 6 5 4 5 5 6 7 7 7 7 7 6 5 5 6 6 7 7 6 6 6 6 6 7 7 7 7 8 8 8 8 9 9 9 8 9 8 8
10 10 9 8 7 7 6 5 5 6 6 6 6 7 7 7 6 6 5 5 6 6 6 6 7 6 5 5 5 6 6 6 7 7 8 8 8 8 8 8 8 8 8
10 10 9 8 8 7 6 5 5 6 6 6 7 7 7 7 7 6 5 5 6 6 6 4 4 3 4 4 4 4 4 5 6 7 8 8 8 8 8 7 7 8 8
10 10 10 9 8 7 7 6 6 6 6 6 6 7 7 7 6 6 5 5 5 5 5 4 3 3 3 3 3 3 3 3 3 5 7 7 8 7 7 7 7 8 8
10 10 10 9 9 8 7 5 5 5 5 5 5 6 6 6 6 6 5 4 5 3 3 3 3 3 2 2 3 3 2 2 3 4 5 6 7 7 7 7 7 7 7
9 10 10 10 9 8 6 5 5 4 3 3 4 6 6 6 6 5 4 4 4 3 2 3 3 3 3 3 2 3 2 2 2 3 4 4 5 6 7 7 7 7 7
10 10 10 10 9 8 6 5 4 5 4 3 4 5 6 6 5 5 4 3 3 3 3 3 3 2 2 3 2 1 1 2 3 3 3 3 4 6 6 7 7 7 7
9 10 10 9 9 8 8 6 6 4 4 3 3 3 4 6 5 5 4 4 3 3 2 2 2 2 1 2 3 2 1 0 2 2 2 3 4 4 4 5 6 7 7
9 9 9 9 8 7 8 8 8 6 5 4 4 3 4 5 5 5 5 5 4 3 2 2 3 2 2 1 2 2 1 0 0 2 2 2 3 3 4 4 5 6 7
9 9 8 9 9 8 7 7 7 6 5 4 5 5 4 4 5 5 5 4 4 3 3 3 3 2 2 1 1 2 2 2 1 1 2 3 3 3 3 3 4 5 6
8 8 8 9 8 8 7 7 7 7 7 7 6 5 4 3 3 4 5 4 4 3 3 2 3 2 2 2 2 2 1 1 2 1 1 2 3 3 3 2 2 3 5
Wind_Direction
112 107 110 101 93 86 80 74 73 70 65 62 59 58 58 56 57 57 57 58 58 59 60 61 61 62 63 62 61 61 61 65 66 66 64 66 68 68 68 69 70 69 71
115 115 113 105 98 91 86 79 76 73 69 66 62 61 60 58 58 58 58 58 59 59 60 60 60 62 61 60 59 59 60 63 64 64 66 65 65 67 68 67 70 72 72
112 115 115 109 101 96 90 84 79 76 73 69 65 63 61 59 58 58 59 59 59 59 59 59 58 59 60 59 58 57 57 57 61 61 63 66 67 67 69 69 70 73 74
110 113 115 112 105 100 94 89 83 78 74 70 67 64 63 61 59 58 59 59 60 60 60 59 58 56 59 60 58 55 51 52 53 58 59 61 65 71 70 70 70 74 74
106 111 115 113 109 103 97 92 87 81 77 72 68 66 66 63 60 58 58 60 59 61 61 60 58 56 56 57 57 53 49 51 52 53 55 58 62 71 70 68 69 72 74
105 106 115 115 110 105 99 95 91 85 79 74 71 68 67 65 62 61 58 58 59 61 61 61 60 57 55 52 51 51 47 46 50 50 52 57 62 69 70 68 68 70 73
107 105 116 117 112 106 101 95 91 88 82 77 72 69 66 65 63 61 59 58 59 60 61 60 59 56 54 51 48 45 44 45 52 51 51 53 61 66 69 69 69 70 71
106 108 117 118 112 108 103 97 91 88 84 78 73 69 66 64 62 61 60 61 60 60 59 58 57 56 52 50 48 43 41 43 49 51 52 53 59 63 65 67 68 69 70
100 104 108 112 110 108 106 99 94 88 83 79 75 71 67 64 62 60 59 59 60 60 58 56 56 55 53 51 48 44 42 43 46 48 53 55 56 60 62 62 64 66 66
103 103 103 104 103 101 102 99 94 89 84 79 75 71 66 62 59 58 57 57 58 58 56 54 54 55 52 48 45 42 41 40 43 45 50 53 53 54 58 61 61 63 66
112 104 100 99 98 99 103 101 94 88 84 79 72 67 64 59 56 54 55 57 57 56 55 53 53 52 48 43 42 44 44 43 45 44 49 52 53 53 54 58 59 58 63
133 121 105 103 100 101 104 100 95 89 84 79 72 65 60 61 61 60 59 59 55 52 50 47 47 45 40 36 40 46 47 44 44 43 48 52 52 52 51 54 55 56 57
141 129 116 109 105 102 97 99 92 89 83 77 74 68 67 67 64 60 59 55 50 46 41 35 33 34 34 34 41 44 46 45 45 44 47 50 49 49 48 50 52 54 54
148 140 130 120 116 107 103 98 92 84 78 75 74 70 67 57 53 52 50 46 45 41 34 31 31 34 35 35 38 43 46 48 49 47 47 49 46 45 43 45 48 49 52
152 147 142 132 128 114 104 98 95 89 84 81 77 73 70 60 53 50 52 46 43 40 35 32 33 32 33 33 37 40 41 45 50 51 49 49 42 40 38 39 43 45 47
161 154 146 142 135 119 111 100 97 99 95 88 79 75 73 69 61 53 49 46 44 38 34 37 39 34 32 36 35 36 39 40 48 49 50 47 43 40 38 37 38 39 39
164 156 152 151 136 127 120 109 103 99 97 88 83 80 74 72 64 57 51 43 43 41 38 44 43 41 36 36 30 30 41 41 42 47 49 48 46 39 35 34 33 34 34
161 157 157 155 143 136 126 113 109 106 98 92 92 87 80 76 72 62 53 46 43 42 39 39 44 39 27 20 10 12 33 43 45 53 53 50 53 45 36 35 34 33 33
162 159 157 152 147 139 127 114 107 102 93 94 97 93 87 84 80 69 58 56 49 45 37 33 40 38 34 22 8 3 13 34 49 64 61 52 57 53 42 33 29 28 29
158 157 156 152 146 139 129 118 106 95 86 90 93 94 93 88 85 77 69 62 55 50 44 41 38 35 35 21 15 10 350 28 57 70 68 56 50 47 42 34 28 22 20
157 159 160 159 153 146 145 144 138 134 122 99 93 98 97 93 89 85 73 64 55 54 60 56 51 43 33 26 25 8 3 23 57 66 65 60 49 43 38 35 33 27 18
164 164 163 162 158 155 152 146 138 132 121 111 98 99 102 96 91 95 80 67 64 67 66 60 59 44 31 22 19 5 11 6 21 24 34 48 46 44 33 25 28 26 22
164 166 166 161 159 154 143 133 131 119 117 115 120 111 100 103 96 93 90 78 67 67 84 63 55 62 42 8 25 42 54 330 321 326 8 36 36 31 21 20 22 26 20
165 156 154 154 153 149 146 150 153 156 157 152 143 130 111 111 102 95 91 87 76 66 77 62 43 40 53 13 4 17 29 16 353 318 317 8 14 10 9 8 13 17 15
155 152 153 152 151 149 149 154 154 149 142 135 135 133 123 104 104 103 100 91 79 72 67 57 50 42 43 37 15 356 1 4 2 297 297 331 345 339 346 359 13 7 5
144 146 151 153 153 153 153 154 154 152 146 145 145 143 136 124 104 101 103 96 89 82 78 72 65 55 39 35 22 23 16 2 342 340 316 317 314 310 324 337 1 357 349
Height
1517 1518 1520 1521 1522 1523 1523 1524 1524 1525 1525 1525 1526 1526 1526 1526 1526 1526 1527 1527 1528 1528 1529 1529 1529 1530 1530 1531 1532 1532 1533 1533 1533 1534 1534 1535 1535 1535 1536 1536 1536 1536 1537
1515 1517 1519 1520 1522 1523 1523 1524 1525 1525 1525 1526 1526 1526 1527 1527 1527 1527 1528 1528 1529 1529 1529 1530 1530 1531 1531 1532 1533 1533 1534 1534 1535 1535 1536 1536 1537 1537 1537 1538 1538 1538 1538
1515 1516 1518 1520 1521 1522 1523 1524 1525 1525 1526 1526 1527 1527 1527 1527 1528 1528 1528 1529 1529 1530 1530 1531 1531 1532 1532 1533 1534 1535 1535 1536 1536 1537 1537 1537 1538 1538 1539 1539 1539 1539 1540
1514 1516 1518 1520 1521 1522 1523 1524 1525 1526 1526 1526 1527 1527 1528 1528 1528 1529 1529 1530 1530 1531 1531 1532 1532 1533 1533 1534 1535 1536 1536 1537 1538 1538 1538 1538 1539 1539 1540 1540 1540 1541 1541
1514 1516 1518 1519 1521 1522 1523 1524 1525 1526 1526 1527 1527 1527 1528 1528 1529 1529 1530 1531 1531 1531 1532 1532 1533 1533 1534 1535 1536 1537 1538 1538 1539 1539 1539 1540 1540 1540 1541 1541 1541 1542 1542
1514 1515 1517 1519 1521 1522 1523 1524 1525 1526 1526 1527 1527 1528 1528 1529 1530 1530 1530 1531 1531 1532 1532 1533 1533 1534 1535 1536 1537 1538 1538 1539 1540 1540 1540 1541 1541 1541 1542 1542 1542 1543 1543
1513 1515 1517 1519 1520 1522 1523 1524 1525 1526 1526 1527 1527 1528 1528 1529 1530 1530 1531 1531 1532 1532 1533 1533 1534 1534 1535 1536 1537 1538 1539 1540 1540 1541 1541 1541 1542 1542 1542 1543 1543 1543 1544
1513 1515 1517 1519 1520 1521 1523 1524 1525 1526 1526 1527 1528 1528 1529 1529 1530 1530 1531 1532 1532 1533 1533 1534 1534 1535 1536 1537 1538 1538 1539 1540 1541 1541 1542 1542 1542 1543 1543 1543 1544 1544 1545
1513 1514 1516 1518 1520 1521 1523 1524 1525 1526 1526 1527 1528 1529 1529 1530 1530 1531 1531 1532 1532 1533 1534 1534 1534 1535 1536 1537 1538 1539 1539 1540 1541 1541 1542 1542 1543 1543 1543 1544 1544 1545 1545
1512 1514 1516 1517 1519 1521 1522 1524 1525 1526 1527 1527 1528 1529 1529 1530 1530 1531 1531 1532 1532 1533 1534 1534 1535 1535 1536 1537 1538 1539 1539 1540 1540 1541 1542 1542 1543 1543 1544 1544 1544 1545 1545
1512 1513 1515 1516 1518 1520 1521 1523 1524 1525 1526 1527 1528 1529 1529 1530 1530 1531 1531 1532 1533 1533 1533 1534 1535 1535 1536 1537 1538 1538 1539 1539 1540 1540 1541 1542 1543 1543 1543 1544 1544 1545 1545
1510 1512 1513 1515 1517 1519 1520 1522 1523 1525 1526 1527 1528 1528 1529 1530 1530 1531 1531 1532 1532 1533 1533 1534 1534 1535 1536 1537 1537 1538 1538 1539 1539 1540 1541 1541 1542 1542 1543 1543 1544 1544 1545
1508 1510 1512 1514 1516 1518 1519 1521 1523 1524 1525 1526 1527 1528 1529 1529 1530 1530 1531 1531 1531 1532 1532 1533 1534 1534 1535 1536 1536 1537 1537 1538 1539 1539 1540 1540 1541 1541 1542 1542 1543 1543 1544
1506 1508 1510 1512 1515 1516 1518 1520 1521 1523 1524 1525 1526 1527 1528 1528 1529 1530 1530 1530 1531 1531 1532 1532 1533 1533 1534 1535 1535 1536 1536 1537 1538 1538 1539 1539 1540 1540 1541 1541 1542 1542 1543
1503 1506 1508 1511 1513 1515 1517 1518 1520 1522 1523 1524 1525 1526 1527 1527 1528 1528 1529 1530 1530 1530 1531 1531 1532 1532 1533 1534 1534 1534 1535 1536 1536 1537 1537 1538 1538 1539 1539 1540 1540 1541 1541
1501 1503 1506 1509 1511 1513 1515 1517 1519 1520 1522 1523 1524 1525 1526 1526 1527 1527 1528 1528 1529 1529 1530 1530 1531 1531 1532 1532 1533 1533 1533 1534 1535 1535 1536 1536 1537 1537 1538 1538 1539 1539 1539
1498 1501 1503 1506 1509 1511 1513 1515 1517 1518 1520 1521 1522 1524 1524 1525 1525 1526 1527 1527 1528 1528 1529 1529 1529 1530 1530 1531 1531 1531 1532 1532 1533 1533 1534 1534 1535 1535 1536 1536 1537 1537 1537
1495 1498 1500 1503 1506 1508 1511 1513 1515 1517 1518 1519 1521 1522 1523 1524 1524 1525 1526 1526 1527 1527 1528 1528 1528 1528 1529 1529 1529 1530 1530 1531 1531 1532 1532 1533 1533 1533 1534 1534 1534 1535 1535
1492 1494 1497 1500 1503 1506 1508 1511 1513 1515 1516 1518 1519 1520 1521 1522 1523 1524 1524 1525 1526 1526 1527 1527 1527 1527 1527 1527 1528 1528 1529 1529 1529 1530 1530 1531 1531 1531 1532 1532 1532 1533 1533
1489 1491 1494 1497 1500 1503 1506 1508 1510 1512 1514 1515 1517 1518 1520 1521 1521 1522 1523 1524 1524 1525 1525 1525 1525 1526 1526 1526 1526 1526 1527 1527 1528 1528 1529 1529 1529 1530 1530 1530 1530 1530 1531
1486 1488 1490 1493 1496 1499 1502 1504 1507 1509 1511 1513 1515 1516 1518 1519 1520 1520 1521 1522 1523 1523 1524 1524 1524 1524 1524 1525 1524 1524 1525 1526 1526 1527 1527 1527 1528 1528 1528 1528 1528 1528 1528
1481 1484 1487 1490 1492 1496 1499 1502 1504 1507 1509 1511 1513 1514 1516 1517 1518 1519 1520 1520 1521 1522 1522 1523 1523 1523 1523 1524 1524 1523 1523 1525 1525 1525 1525 1525 1526 1526 1526 1526 1526 1526 1526
1478 1481 1483 1486 1489 1492 1496 1499 1502 1504 1506 1508 1510 1512 1513 1515 1516 1517 1518 1519 1519 1520 1520 1520 1521 1521 1521 1522 1523 1524 1523 1523 1523 1523 1523 1523 1523 1523 1524 1523 1523 1524 1524
1475 1478 1481 1484 1486 1489 1492 1495 1497 1499 1502 1504 1507 1509 1511 1512 1514 1515 1516 1517 1518 1518 1519 1519 1519 1520 1520 1520 1521 1522 1523 1522 1522 1520 1521 1521 1521 1521 1521 1520 1521 1521 1521
1472 1475 1478 1481 1484 1487 1489 1492 1494 1497 1499 1502 1504 1506 1508 1510 1511 1513 1514 1515 1516 1516 1517 1517 1518 1518 1519 1519 1519 1520 1520 1521 1520 1520 1518 1518 1518 1519 1519 1518 1518 1517 1518
1470 1473 1476 1478 1481 1484 1487 1489 1492 1494 1496 1498 1500 1503 1505 1506 1508 1510 1512 1513 1514 1514 1515 1515 1516 1516 1517 1517 1517 1517 1518 1518 1518 1517 1516 1516 1516 1516 1516 1516 1515 1515 1515